RH
20 20 19 19 20 19 19 20 21 23 25 25 26 26 27 26 23 21 18 16 15 20 27 34 37 48 61
14 14 14 14 13 14 15 16 16 18 19 21 22 23 23 24 25 24 22 20 17 18 24 31 35 36 54
14 10 11 12 12 10 10 12 12 12 13 16 17 18 20 21 21 22 23 23 21 18 21 29 35 38 53
19 14 13 13 16 15 12 10 10 9 11 11 12 15 16 16 17 19 20 22 23 22 18 24 34 38 56
21 21 19 19 21 21 20 18 16 14 16 12 8 8 12 14 14 15 17 19 20 22 21 21 31 40 53
24 23 23 22 21 21 21 20 18 17 17 13 12 8 7 8 12 13 14 16 17 19 21 20 25 42 55
26 25 24 23 22 22 23 23 22 20 21 17 16 12 10 7 6 10 13 12 15 17 19 20 20 30 53
28 28 29 29 29 29 29 27 28 27 28 26 21 19 16 12 10 8 10 11 11 14 17 19 20 24 40
36 37 38 38 37 37 33 33 31 29 29 32 27 28 24 21 21 19 16 15 12 12 15 17 19 20 36
36 37 38 37 38 40 39 40 40 37 30 35 34 38 35 27 26 24 19 15 13 12 13 17 18 20 29
45 46 47 46 45 44 44 47 48 46 41 43 38 37 38 31 26 25 20 15 11 12 12 16 18 22 24
45 44 44 45 46 48 50 52 52 52 48 49 46 42 41 37 31 27 25 19 14 11 13 12 18 22 25
51 50 50 52 54 56 58 59 58 55 53 51 52 47 46 45 37 33 29 24 18 13 13 13 16 20 24
52 49 47 48 49 52 56 58 58 54 52 53 55 51 45 46 45 39 35 32 24 18 14 14 15 20 24
52 53 53 53 53 59 63 63 66 64 60 57 56 52 50 50 50 48 42 34 29 23 19 14 15 19 24
56 57 56 57 58 63 67 68 70 67 64 61 61 58 52 50 51 48 48 42 38 32 25 18 14 18 25
58 59 59 59 62 68 73 72 71 70 68 67 67 65 62 57 51 51 50 50 46 41 35 27 18 17 24